Other Public Products
Issued by NWS Grand Forks, ND

Home | Current Version | Previous Version | Text Only | Print | Product List | Glossary Off
Versions: 1 2 3 4 5 6 7 8 9 10 11 12 13 14 15 16 17 18 19 20 21 22 23 24 25 26 27 28 29 30 31 32 33 34 35 36 37 38 39 40 41 42 43 44 45 46 47 48 49 50

000
FPUS83 KFGF 291431
OPUFGF
PRAIRIE TO PINES WEATHER ROUNDUP
NATIONAL WEATHER SERVICE EASTERN NORTH DAKOTA/GRAND FORKS ND
900 AM CDT WED JUL 29 2015

 **SATELLITE DATA USED TO AUGMENT SKY COVER AT AUTOMATED STATIONS**
 *****  WEATHER ACROSS EASTERN NORTH DAKOTA  *****

CITY           SKY/WX    TMP DP  RH WIND       PRES   REMARKS
GRAND FORKS    CLOUDY    69  53  56 W28G37    29.70R
GRAND FORKS AF PTSUNNY   69  53  56 NW26G35   29.72R
GRAND CITY NWS   N/A     66 N/A N/A W22         N/A
BUXTON         NOT AVBL
DEVILS LAKE    SUNNY     68  52  56 W26G33    29.80R
FARGO          SUNNY     71  53  52 W26G37    29.80R
WAHPETON ARPT  SUNNY     70  50  49 W22G28    29.90R
$$

 *****  WEATHER ACROSS CENTRAL AND WESTERN NORTH DAKOTA  *****

CITY           SKY/WX    TMP DP  RH WIND       PRES   REMARKS
JAMESTOWN      SUNNY     66  51  58 W22G33    29.90R
BISMARCK       SUNNY     68  48  48 W20G26    30.01R
MINOT          MOSUNNY   66  51  58 W21G28    29.90R
MINOT AFB      MOSUNNY   66  55  67 W20G26    29.89R
GARRISON         N/A     65  52  62 W18G28    29.97R
WILLISTON      PTSUNNY   61  51  70 W17       30.02R
DICKINSON      PTSUNNY   61  46  57 W13       30.08R
HETTINGER      SUNNY     63  43  48 W18       30.13S
$$

 *****  OTHER OBSERVATIONS NORTHEAST NORTH DAKOTA  *****

CITY           SKY/WX    TMP DP  RH WIND       PRES   REMARKS
WALHALLA       FAIR      68  57  68 MISG      29.65R
LANGDON        FAIR      66  55  68 W25G40    29.71R
CAVALIER       FAIR      68  57  68 W25G40    29.65R
GRAFTON        PTSUNNY   68  57  68 W25G33    29.68R
CANDO          FAIR      66  55  68 W26G33    29.79R
FORT TOTTEN      N/A     67  56  67 NW14      29.95S
ROLLA          FAIR      64  54  68 W22G36    29.80R
RUGBY          NOT AVBL
 ***** THE ABOVE OBSERVATIONS ARE NON NWS ARE NOT QUALITY
        CONTROLLED AND MAY MIS-REPORT RAIN FOR SNOW...
$$

 *****  OTHER OBSERVATIONS SOUTHEAST NORTH DAKOTA *****

CITY           SKY/WX    TMP DP  RH WIND       PRES   REMARKS
COOPERSTOWN    NOT AVBL
VALLEY CITY    FAIR      68  55  64 W26G38    29.86S
OAKES            N/A     70  54  56 W18G29    29.95R
GWINNER        FAIR      70  52  52 W18G30    29.93R
BUFFALO        NOT AVBL
WYNDMERE         N/A     70  54  56 W20         N/A
 ***** THE ABOVE OBSERVATIONS ARE NON NWS ARE NOT QUALITY
       CONTROLLED AND MAY MIS-REPORT RAIN FOR SNOW...
$$

  *****  WEATHER ACROSS NORTHERN MINNESOTA  *****

CITY           SKY/WX    TMP DP  RH WIND       PRES   REMARKS
FLAG ISLAND    CLOUDY    63  57  82 W20G28    29.47R
WARROAD        CLOUDY    63  57  82 W21G30    29.55R
ROSEAU         CLOUDY    64  57  77 W13G25    29.57R
HALLOCK        CLOUDY    66  57  72 W20G33    29.62R
THF RVR FALLS  CLOUDY   N/A N/A N/A W22G28    29.68R
HALSTAD        NOT AVBL
FOSSTON        CLOUDY    61  55  82 W21G26    29.73R
BAUDETTE       CLOUDY    60  57  89 SW14G25   29.55S
WASKISH        CLOUDY    64  57  77 SW24G36   29.62S
CROOKSTON      CLOUDY    66  55  68 W22G31    29.72R
$$
  *****  WEATHER ACROSS CENTRAL AND WEST MINNESOTA  *****

CITY           SKY/WX    TMP DP  RH WIND       PRES   REMARKS
BEMIDJI        CLOUDY    62  54  75 W21G31    29.71R
PARK RAPIDS    CLOUDY    65  52  62 W22G30    29.78R
WADENA         CLOUDY    64  52  63 W20G31    29.83R
DETROIT LAKES  PTSUNNY   66  52  59 W25G33    29.82R
MOORHEAD       SUNNY     72  54  53 W18G30    29.83R
FERGUS FALLS   SUNNY     68  54  60 W22G32    29.87R
ELBOW LAKE     FAIR      67  53  58 W23G38    29.91R
MORRIS MN      SUNNY     72  54  53 W24       29.94R
STAPLES        CLOUDY    64  52  63 W22G33    29.84R
WHEATON        SUNNY     70  52  52 W17G28    29.95R
$$
  *****  WEATHER ELSEWHERE ACROSS MINNESOTA  *****

CITY           SKY/WX    TMP DP  RH WIND       PRES   REMARKS
DULUTH         PTSUNNY   66  50  56 W25G33    29.74S
INTRNTL FALLS  LGT RAIN  63  55  75 SW14G28   29.56R
ELY            CLOUDY    63  52  67 SW16G24   29.65S
CLOQUET        CLOUDY    64  48  55 SW16G24   29.76
BRAINERD       CLOUDY    66  51  58 W16G25    29.81R
HIBBING        CLOUDY    64  51  62 SW9       29.70R
ALEXANDRIA     SUNNY     68  51  54 W28G39    29.91R
SAINT CLOUD    SUNNY     70  50  49 W22G35    29.88S
MINNEAPOLIS    SUNNY     70  50  49 SW17G28   29.94S
$$

  *****  WEATHER ACROSS SOUTH DAKOTA  *****

CITY           SKY/WX    TMP DP  RH WIND       PRES   REMARKS
SIOUX FALLS    MOSUNNY   67  53  61 W7        30.12R
BROOKINGS      SUNNY     66  52  59 W14G20    30.10S
WATERTOWN      SUNNY     66  50  56 W13       30.04R
HURON          SUNNY     68  51  54 W10       30.08R
SISSETON         N/A     71  51  49 NW21G37   29.94R
ABERDEEN       SUNNY     67  51  56 SW9       30.02R
MITCHELL       SUNNY     70  51  51 W10       30.12R
PIERRE         SUNNY     69  45  41 W16       30.12R
MOBRIDGE       SUNNY     69  48  47 W12       30.05R
RAPID CITY     SUNNY     67  45  45 W14       30.24S
$$

  *****  SOME WEATHER IN NEARBY STATES *****

CITY           SKY/WX    TMP DP  RH WIND       PRES   REMARKS
GLASGOW MT     SUNNY     57  48  72 W5        30.11R
GREAT FALLS MT SUNNY     61  40  45 SW13      30.23R
CHEYENNE WY    SUNNY     58  36  43 NE7       30.38S
SCOTTSBLUFF NE SUNNY     60  46  59 CALM      30.34R
OMAHA NE       PTSUNNY   69  65  86 N3        30.17R
DES MOINES IA  PTSUNNY   75  61  61 NW7       30.11R
DAVENPORT IA   CLOUDY    75  70  84 NW6       30.04R
CHICAGO IL     CLOUDY    79  72  79 NW12      29.95S
EAU CLAIRE WI  SUNNY     71  53  52 W20G25    29.91S
LA CROSSE WI   SUNNY     75  52  44 W16       29.98R
$$

  *****  SOME NATIONAL WEATHER *****

CITY           SKY/WX    TMP DP  RH WIND       PRES   REMARKS
LA GUARDIA NY  PTSUNNY   89  65  44 NE6       29.98S HX  91
RALEIGH NC     PTSUNNY   81  72  74 S6        30.04S
ATLANTA GA     PTSUNNY   83  72  69 NW6       30.04R
NEW ORLEANS LA PTSUNNY   86  75  69 NW13      30.04R HX  95
OKLAHOMA CITY  MOSUNNY   80  69  69 S8        30.05R
ALBUQUERQUE NM CLOUDY    72  55  55 NW5       30.30R
SALT LAKE CITY MOSUNNY   61  40  45 CALM      30.29R
LOS ANGELES CA CLOUDY    66  63  90 W8        29.93R
BOISE ID       SUNNY     62  37  39 SE7       30.24R
SEATTLE WA     MOSUNNY   62  55  77 N3        30.20R
$$

*** WEATHER ACROSS MANITOBA...SASKATCHEWAN AND ONTARIO ***
                ***ONTARIO***

CITY           SKY/WX    TMP DP  RH WIND       PRES   REMARKS
GERALDTON      MOSUNNY   72  57  60 S17G25    29.56F
THUNDER BAY    PTSUNNY   68  52  56 SW12G18   29.60S
SIOUX LOOKOUT  LGT RAIN  63  57  82 SW17G25   29.41S
TORONTO        PTSUNNY   84  64  51 S5        29.97S
BIG TROUT LK   PTSUNNY   72  61  68 S8        29.31F
PICKLE LAKE    LGT RAIN  64  54  68 S17G30    29.37F
DRYDEN         LGT RAIN  61  59  94 SW16G26   29.42S FOG
KENORA         LGT RAIN  61  59  94 W18G29    29.43R FOG
$$
                *** MANITOBA***

CITY           SKY/WX    TMP DP  RH WIND       PRES   REMARKS
BRANDON        PTSUNNY   66  57  72 W29G40    29.70
DAUPHIN        MOSUNNY   66  55  68 W20G30    29.62R
ISLAND LAKE    PTSUNNY   68  61  77 S6        29.26S
PILOT MOUND      N/A     63  55  77 W18G30      N/A
THE PAS        MOSUNNY   63  55  77 NW21G29   29.57R
THOMPSON       LGT RAIN  57  55  94 N21G29    29.40R FOG
WINNIPEG       LGT RAIN  61  59  94 W23G30    29.52R
LYNN LAKE        N/A    N/A N/A N/A MISG        N/A
CHURCHILL      LGT RAIN  50  48  93 NE17      29.57F FOG
GILLAM         DRIZZLE   55  55 100 NE18G30   29.29R
$$
                ***SASKATCHEWAN***

CITY           SKY/WX    TMP DP  RH WIND       PRES   REMARKS
ESTEVAN        PTSUNNY   63  54  72 W22G28    29.93R
KINDERSLEY     MOSUNNY   61  50  67 W8        30.03S
LLOYDMINSTER   MOSUNNY   59  46  63 W15G22    29.98R
PRINCE ALBERT  MOSUNNY   63  55  77 NW10      29.84R
REGINA         MOSUNNY   61  54  77 W14       29.94R
YORKTON        SUNNY     64  55  72 W20G28    29.77R



USA.gov is the U.S. government's official web portal to all federal, state and local government web resources and services.